Regional Weather Roundup
Issued by NWS New Orleans/Baton Rouge, LA

Home | Current Version | Previous Version | Text Only | Print | Product List | Glossary On
Versions: 1 2 3 4 5 6 7 8 9 10 11 12 13 14 15 16 17 18 19 20 21 22 23 24 25 26 27 28 29 30 31 32 33 34 35 36 37 38 39 40 41 42 43 44 45 46 47 48 49 50
153
ASUS44 KLIX 020305
RWRLIX
NEW ORLEANS REGIONAL WEATHER ROUNDUP
NATIONAL WEATHER SERVICE NEW ORLEANS LA
1000 PM CDT MON SEP 01 2014

NOTE: "FAIR" INDICATES FEW OR NO CLOUDS BELOW 12,000 FEET WITH NO
      SIGNIFICANT WEATHER AND/OR OBSTRUCTIONS TO VISIBILITY.
      SKY/WX - SKY CONDITION AND SIGNIFICANT WEATHER.
      TMP - AIR TEMPERATURE.     DP    - DEWPOINT TEMPERATURE.
      RH  - RELATIVE HUMIDITY.   PRES  - PRESSURE.
      HI  - HEAT INDEX.          WCI   - WIND CHILL INDEX.

*  THESE STATIONS ARE NOT NWS OR FAA STATIONS AND ARE NOT UNDER
   NWS QUALITY CONTROL.

LAZ038-040-048-061>063-065>067-069-020400-
SOUTHEAST LOUISIANA

CITY           SKY/WX    TMP DP  RH WIND       PRES   REMARKS
N.O. AUDUBON     N/A     81  76  85 MISG        N/A
N.O. INTL ARPT CLOUDY    82  76  81 SE5       30.04S
N.O. LAKEFRONT CLOUDY    79  73  82 SE8       30.05S
N.O. DOWNTOWN*   N/A     81  72  74 SE3       30.05F
SLIDELL        CLOUDY    78  75  90 CALM      30.05S
BATON ROUGE    CLOUDY    79  75  87 SE6       30.02F
BOOTHVILLE     MOCLDY    82  77  84 SE3       30.06R
BELLE CHASSE   CLOUDY    79  75  87 E3        30.04S
BOGALUSA*        N/A     79  74  85 SE5       30.06F
GALLIANO*      NOT AVBL
NEW ROADS*       N/A     79  76  91 SE6       30.02S
GONZALES*        N/A     80  79  97 SE3       30.03S
HAMMOND*       CLOUDY    77  73  88 SE3       30.05F
HOUMA*         CLOUDY    80  73  80 CALM      30.04S
PORT FOURCHON* PTCLDY    84  77  79 S5        30.06R

$$

MSZ070-080>082-020400-
SOUTHERN MISSISSIPPI

CITY           SKY/WX    TMP DP  RH WIND       PRES   REMARKS
MCCOMB         CLOUDY    77  75  93 SE3       30.05S
GULFPORT       CLOUDY    80  76  87 SE3       30.06S
BILOXI         CLOUDY    83  75  76 S6        30.06S
PASCAGOULA     CLOUDY    77  75  93 CALM      30.07R

$$

COASTAL OBSERVATIONS
LAKE AND NEARSHORE STATIONS

STATION/POSITION TIME  TEMP    WIND        PRES    WAVE
                       AIR SEA DIR/SP/G            HT/PER
                 (UTC) (F)     (DEG/KT/KT) (MB)    (FT/S)
PASCAGOULA       0300   85     170/  7/ 10 1017.9
WAVELAND YACHT   0300   84     150/ 11/ 12 1017.3
GRAND ISLE       0300   84 85  130/  3/  5 1018.2
SOUTHWEST PASS   0300   84 90  140/  6/  8 1018.1
NEW CANAL        0300   79 81  130/  1/  3 1017.9
SHELL BEACH      0300   81 81  170/  4/  6 1017.6

OFFSHORE STATIONS

STATION/POSITION TIME  TEMP    WIND        PRES    WAVE
                       AIR SEA DIR/SP/G            HT/PER
                 (UTC) (F)     (DEG/KT/KT) (MB)    (FT/S)
64 S DAUPHIN ISL 0250   84 85  150/  4/  6 1018.1

$$




USA.gov is the U.S. government's official web portal to all federal, state and local government web resources and services.